Location: Acton
(51.4942°N, 0.2232°W)
Time: 14:07:35
(UTC+00:00)

Okean 1-7 Rocket - Pass Details

Date: 25 January 2021
Orbit: 615 x 650 km, 82.5° (Epoch: 28 February)

Event Time Altitude Azimuth Distance (km) Brightness Sun altitude
Exits shadow 05:17:25 11° 189° (S) 1,921 6.0 -23.3°
Drops below altitude 10° 05:17:40 10° 189° (S) 2,017 6.1 -23.3°
Sets 05:19:55 0° 185° (S) 2,914 7.0 -22.9°
